Home   Weather   Fairfield Acres   Past weeks
Flag for USA

Past Weather in Fairfield Acres, South Carolina, USA — Yesterday and Last 2 Weeks

Now
57 °F

Sunny.


Feels Like: 57 °F
Forecast: 62 / 40 °F
Wind: 3 mph from North

Location: Anderson County Airport

Current Time: Dec 5, 2019 at 12:16:25 pm

Latest Report: Dec 5, 2019 at 10:56 am


Visibility: 10 mi

Pressure: 30.11 "Hg

Humidity: 31%

Dew Point: 26 °F

Location of Fairfield AcresLocation

Past Weather in Fairfield Acres — Graph

°F

Fairfield Acres Temperature Yesterday

Maximum temperature yesterday: 62 °F (at 2:56 pm)
Minimum temperature yesterday: 49 °F (at 9:56 am)
Average temperature yesterday: 54 °F

High & Low Weather Summary for the Past Weeks

 TemperatureHumidityPressure
High73 °F (Nov 27, 3:56 pm)97% (Nov 23, 2:56 pm)30.32 "Hg (Nov 23, 2:56 pm)
Low28 °F (Dec 3, 6:56 am)22% (Dec 4, 2:56 pm)29.54 "Hg (Dec 1, 2:56 pm)
Average53 °F66%29.96 "Hg
* Reported Nov 20 10:56 am — Dec 5 10:56 am, Fairfield Acres. Weather by CustomWeather, © 2019

Note: Actual official high and low records may vary slightly from our data, if they occured in-between our weather recording intervals... More about our weather records

Fairfield Acres Weather History for the Previous 24 Hours

Scroll right to see more
 ConditionsComfort  
Time TempWeatherWind HumidityBarometerVisibility
10:56 am
Thu, Dec 5
57 °FSunny.3 mph31%30.11 "Hg10 mi
9:56 am53 °FSunny.7 mph35%30.09 "Hg10 mi
8:56 am51 °FSunny.8 mph44%30.06 "Hg10 mi
7:56 am45 °FSunny.5 mph49%30.03 "Hg10 mi
6:56 am45 °FClear.8 mph48%30.00 "Hg10 mi
5:56 am49 °FClear.9 mph39%29.97 "Hg10 mi
4:56 am50 °FClear.14 mph38%29.95 "Hg10 mi
3:56 am51 °FClear.14 mph38%29.93 "Hg10 mi
2:56 am51 °FClear.13 mph41%29.91 "Hg10 mi
1:56 am49 °FClear.10 mph46%29.89 "Hg10 mi
12:56 am49 °FClear.8 mph46%29.88 "Hg10 mi
11:56 pm
Wed, Dec 4
49 °FClear.10 mph46%29.87 "Hg10 mi
10:56 pm50 °FClear.12 mph44%29.87 "Hg10 mi
9:56 pm50 °FClear.9 mph43%29.87 "Hg10 mi
8:56 pm49 °FClear.8 mph43%29.87 "Hg10 mi
7:56 pm50 °FClear.6 mph39%29.86 "Hg10 mi
6:56 pm51 °FClear.9 mph39%29.85 "Hg10 mi
5:56 pm56 °FClear.12 mph29%29.82 "Hg10 mi
4:56 pm58 °FSunny.10 mph27%29.80 "Hg10 mi
3:56 pm61 °FSunny.16 mph24%29.77 "Hg10 mi
2:56 pm62 °FSunny.17 mph22%29.76 "Hg10 mi
1:56 pm61 °FSunny.13 mph32%29.76 "Hg10 mi
12:56 pm58 °FSunny.17 mph35%29.78 "Hg10 mi
Weather by CustomWeather, © 2019

See weather overview

Advertising